COSMOS 1275 DEB, 12732

Orbit data source: Space-Track

COSMOS 1275 DEB, 12732 is space debris in LEO originally from a launch on Thu, 04 Jun 1981 UTC launched from the Plesetsk Missile And Space Complex (PKMTR). Debris objects in space refer to the collection of defunct objects orbiting the Earth. Examples of debris include non-operational satellites, rocket bodies, and fragments generated from explosions, collisions, or faulty payload assembly.

Loading next visibility...
Identifier
12732, 1981-053BZ
Orbit
LEO
Country
Flag of CISCIS
Related business
Manufacturer
Unknown
Mission
Spacecraft
Bus & Motor
Unknown
Mass
Unknown
Launch date (UTC)
1981-06-04 (45 years ago)
Launch vehicle
Unknown
Launch site
Plesetsk Missile And Space Complex (PKMTR)
Object type
Payload
Rocket body
Debris
Shape & HBR
Unknown shape, 0.1 m
Radar Cross Section
Small (<0.1 m²)

Expand to show TLE details & history
Last TLE update: 9 hours ago

TLE from 9 hours ago
0 COSMOS 1275 DEB
1 12732U 81053BZ  26048.75400802  .00000473  00000-0  35719-3 0  9990
2 12732  82.9909 154.1699 0052764  82.1779  81.2710 13.91497481254532
Epoch: 2026-02-17T18:05Z
TLE epoch observation values (Epoch: 2026-02-17T18:05:46.292Z)
Latitude
15.81014°
Longitude
-86.98709°
Altitude
919.991 km
Speed
7.396 km/s
True Right ascension
22h 08m 44s
True Declination
15° 43' 20"
Sunlit
Object was in daylight at epoch
Visualization orbit readout
Latitude
Unknown
Longitude
Unknown
Altitude
Unknown
Speed
Unknown
Apparent Right ascension
Unknown
Apparent Declination
Unknown
Sunlit
N/A
Visualization observer readout
Local Sidereal Time
06:08:24
Azimuth
Unknown
Elevation
Unknown
Doppler factor
Unknown
Orbital elements
Apogee altitude
959.022 km
Perigee altitude
882.001 km
Semi-major axis
7,298.649 km
Eccentricity
0.00528
Inclination
82.9909°
RAAN
154.1699°
Arg. of periapsis
82.1779°
True anomaly
81.86922°
Mean anomaly
81.271°
Eccentric anomaly
81.57005°
Mean motion
3.4808 °/min
Orbital period
103.42 mins
BSTAR
0.00035719
Loading maneuver chart data...
Computing Atmospheric mass density...
Loading historical data...
Loading historical data...
Loading historical data...
Loading historical data...
Loading historical data...
Loading historical data...
Loading historical data...

Documentation

Showing up to 5 results
|